Temp
75 76 76 75 72 71 70 70 68 68 68 68 67 66 67 68 69 70 72 73 74 75 74 75 74 74 73 72 72 71 71 71 71 70 71 71 71 73 73 74 75 77 77
71 73 73 72 71 69 70 70 69 69 69 69 68 68 68 70 71 72 72 74 74 75 75 75 74 74 73 73 72 72 71 71 70 68 65 67 71 71 73 73 73 75 76
69 69 70 71 71 69 69 69 69 69 69 69 69 68 70 69 69 71 72 74 75 76 76 75 73 71 72 73 72 72 73 69 70 70 69 65 66 66 70 73 73 74 74
70 70 71 70 71 70 71 70 69 69 69 69 68 68 68 67 69 70 72 73 76 76 76 75 73 71 71 73 74 74 73 72 70 69 70 69 69 68 68 71 72 73 74
70 70 71 72 73 72 71 70 69 69 70 70 69 69 67 69 71 70 71 71 74 77 77 75 75 74 74 75 75 74 75 74 71 70 69 70 69 70 68 69 71 72 73
72 72 72 73 73 73 73 71 69 68 69 69 69 69 68 68 68 70 70 71 73 74 75 76 75 75 74 75 75 76 76 75 74 72 71 70 71 69 69 68 69 69 72
72 71 70 71 71 70 71 71 69 68 68 69 70 70 69 68 68 70 71 71 71 72 74 74 74 75 75 76 75 75 75 75 75 74 72 72 74 72 71 70 69 70 71
72 71 71 72 73 72 71 71 69 69 69 69 69 70 70 68 70 70 71 71 71 73 75 75 74 75 76 76 76 76 75 76 75 75 75 74 73 72 73 72 71 69 70
71 71 71 73 73 73 71 70 70 70 69 70 69 69 70 70 70 70 71 72 71 73 74 74 74 75 76 74 75 73 75 76 76 75 75 75 75 75 73 73 73 72 70
71 71 72 73 74 75 74 72 71 71 70 71 71 71 71 71 72 71 71 71 72 72 73 73 74 75 75 75 74 73 75 75 76 76 75 74 75 75 73 73 72 72 72
70 71 73 74 74 75 74 71 70 71 70 71 71 71 71 71 72 72 71 72 72 72 72 73 73 73 74 74 73 74 75 74 74 74 75 75 76 76 74 74 73 73 71
72 72 73 73 73 73 73 72 71 70 72 71 71 71 71 72 72 72 72 72 72 73 73 73 73 72 73 73 73 74 75 74 74 74 74 74 78 75 74 74 73 73 72
69 70 71 72 72 72 72 72 72 70 71 71 71 71 70 71 72 72 73 72 73 73 75 73 73 73 73 71 71 73 74 75 73 74 75 75 73 73 73 73 73 73 74
65 68 69 70 71 72 71 71 73 71 70 72 72 71 71 72 73 73 72 73 73 73 73 74 73 73 73 73 73 74 74 75 76 75 75 76 75 74 74 74 74 75 73
64 65 68 68 69 69 70 71 71 71 71 70 70 71 71 71 73 72 72 72 72 74 73 73 73 73 74 77 74 75 73 74 75 76 76 76 76 73 73 77 74 73 74
63 64 66 66 69 69 69 70 71 71 71 70 70 70 70 70 71 71 71 72 72 72 72 72 73 73 77 70 70 73 74 74 74 75 75 76 73 73 70 69 70 73 73
63 63 64 65 65 66 70 68 71 70 70 70 70 69 69 69 70 71 71 71 71 72 72 73 73 73 73 68 68 70 74 74 74 74 74 75 79 74 77 71 68 68 68
63 63 63 64 65 66 68 69 69 70 69 69 69 69 70 70 70 70 70 70 71 72 71 70 71 72 72 66 66 69 73 74 74 74 75 74 75 75 75 75 75 75 75
63 63 63 63 64 65 66 68 68 69 69 70 70 70 70 70 70 69 70 71 70 70 71 71 71 70 71 64 63 65 71 72 73 73 74 73 73 69 64 72 73 74 74
62 63 65 64 64 64 64 64 68 68 69 71 71 71 72 70 71 71 71 71 71 71 71 71 71 69 72 64 60 63 70 69 72 72 72 65 68 62 60 70 72 71 73
62 64 65 64 65 64 64 63 64 65 69 70 71 72 72 72 72 72 73 71 70 69 69 70 71 69 69 68 59 59 71 71 70 70 70 70 62 58 57 58 71 70 70
62 64 62 63 65 65 64 62 62 65 67 68 71 71 71 72 73 72 71 70 70 70 69 69 68 69 69 63 59 58 60 65 69 68 69 67 56 55 55 60 58 58 63
61 62 61 62 64 64 63 62 64 65 66 66 66 68 71 71 71 70 69 69 69 69 68 68 68 68 67 67 59 57 58 59 65 68 65 56 53 53 57 56 57 59 68
61 61 60 61 62 63 63 62 64 65 65 64 64 65 68 70 70 70 70 69 68 68 68 67 67 68 68 66 65 63 61 58 61 61 61 59 59 58 60 62 62 64 65
61 60 59 60 61 63 62 63 63 63 62 63 64 65 67 68 69 66 65 68 68 67 68 68 68 66 65 66 61 61 64 65 62 62 63 61 61 60 61 61 61 60 61
60 58 59 59 61 61 62 62 63 63 62 62 64 64 67 69 65 59 55 50 51 48 48 52 61 60 55 51 50 48 50 50 51 63 63 61 60 62 61 60 59 59 58
MSLP
1009.76 1010.26 1010.76 1011.39 1012.03 1012.74 1013.42 1013.95 1014.53 1015.11 1015.71 1016.23 1016.53 1016.93 1017.09 1017.30 1017.33 1017.28 1017.25 1017.34 1017.40 1017.31 1017.46 1017.32 1017.42 1017.60 1017.83 1018.09 1018.26 1018.67 1018.96 1019.24 1019.35 1019.20 1018.97 1018.87 1018.79 1018.73 1018.68 1018.67 1018.80 1018.71 1018.83
1009.49 1009.94 1010.54 1011.15 1011.63 1012.33 1013.04 1013.68 1014.40 1014.96 1015.45 1015.91 1016.12 1016.33 1016.73 1016.97 1016.95 1016.93 1016.98 1017.04 1017.11 1017.13 1017.33 1017.33 1017.51 1017.75 1018.07 1018.20 1018.50 1018.86 1019.02 1019.21 1019.45 1019.46 1019.65 1019.38 1019.14 1018.81 1018.72 1018.65 1018.80 1018.86 1018.79
1009.53 1009.91 1010.36 1010.60 1011.20 1011.99 1012.73 1013.39 1013.98 1014.68 1015.18 1015.70 1016.09 1016.33 1016.56 1016.86 1016.93 1016.94 1016.90 1016.63 1016.61 1016.82 1017.04 1017.31 1017.66 1017.79 1018.01 1018.19 1018.65 1018.82 1018.81 1019.19 1019.38 1019.34 1019.35 1019.72 1019.50 1019.35 1018.94 1018.60 1018.67 1018.81 1018.76
1009.25 1009.59 1009.88 1010.45 1010.69 1011.36 1012.20 1013.07 1013.66 1014.32 1014.98 1015.40 1015.86 1016.02 1016.16 1016.56 1016.48 1016.55 1016.65 1016.57 1016.45 1016.65 1016.89 1017.18 1017.59 1017.65 1017.82 1018.05 1018.29 1018.45 1018.68 1018.80 1019.15 1019.24 1019.27 1019.27 1019.26 1019.36 1019.16 1018.87 1018.74 1018.78 1018.72
1008.75 1009.27 1009.51 1009.92 1010.40 1011.09 1011.84 1012.45 1013.30 1014.12 1014.60 1015.12 1015.37 1015.81 1016.18 1016.16 1016.18 1016.42 1016.63 1016.66 1016.57 1016.61 1016.75 1017.08 1017.36 1017.59 1017.66 1017.97 1018.11 1018.39 1018.38 1018.51 1018.79 1018.87 1019.14 1019.17 1019.29 1019.35 1019.19 1019.00 1018.92 1018.84 1018.54
1008.03 1008.60 1009.31 1009.83 1010.24 1010.98 1011.62 1012.16 1013.00 1013.74 1014.14 1014.77 1015.09 1015.47 1015.83 1016.06 1016.34 1016.33 1016.51 1016.62 1016.71 1016.79 1016.84 1016.95 1017.25 1017.43 1017.62 1017.73 1017.81 1017.98 1018.23 1018.32 1018.50 1018.62 1018.96 1019.02 1019.07 1019.19 1019.20 1019.34 1019.18 1019.04 1018.53
1007.46 1008.16 1008.87 1009.29 1009.91 1010.73 1011.18 1011.93 1012.67 1013.33 1013.63 1014.26 1014.74 1014.98 1015.37 1015.73 1016.03 1016.25 1016.29 1016.53 1016.69 1016.68 1016.70 1016.79 1017.10 1017.32 1017.34 1017.45 1017.58 1017.80 1018.15 1018.23 1018.34 1018.37 1018.73 1018.80 1018.82 1019.03 1019.05 1019.13 1019.09 1018.92 1018.70
1006.94 1007.67 1008.29 1008.88 1009.29 1009.69 1010.54 1011.41 1012.22 1012.75 1013.23 1013.74 1014.31 1014.71 1014.99 1015.44 1015.55 1015.78 1016.09 1016.14 1016.27 1016.38 1016.40 1016.50 1016.76 1016.99 1017.16 1017.22 1017.37 1017.70 1017.98 1018.11 1018.16 1018.20 1018.33 1018.51 1018.63 1018.88 1018.93 1018.96 1018.89 1018.83 1018.59
1006.68 1007.22 1007.83 1008.21 1008.70 1009.30 1009.83 1010.76 1011.48 1012.13 1012.60 1013.01 1013.63 1014.27 1014.66 1015.04 1015.29 1015.44 1015.74 1015.83 1015.98 1016.20 1016.26 1016.29 1016.61 1016.77 1017.04 1017.15 1017.40 1017.79 1017.88 1017.93 1018.14 1018.25 1018.19 1018.22 1018.23 1018.42 1018.59 1018.80 1018.77 1018.61 1018.56
1006.18 1006.55 1007.05 1007.45 1007.90 1008.61 1009.63 1010.39 1011.14 1011.53 1011.88 1012.48 1012.89 1013.46 1014.07 1014.55 1014.90 1015.17 1015.47 1015.65 1015.79 1016.11 1016.34 1016.38 1016.48 1016.69 1016.89 1016.97 1017.29 1017.62 1017.66 1017.81 1017.91 1018.07 1018.25 1018.09 1018.01 1018.08 1018.25 1018.45 1018.62 1018.58 1018.62
1006.01 1005.97 1006.21 1006.61 1007.26 1008.00 1008.69 1009.64 1010.63 1011.17 1011.73 1012.11 1012.50 1012.86 1013.43 1014.04 1014.55 1014.72 1015.03 1015.21 1015.51 1015.89 1016.18 1016.28 1016.25 1016.36 1016.59 1016.81 1017.09 1017.28 1017.45 1017.63 1017.74 1017.85 1017.95 1017.92 1017.97 1018.00 1018.02 1018.31 1018.45 1018.42 1018.58
1005.93 1006.25 1005.93 1006.27 1006.91 1007.46 1008.13 1008.79 1009.75 1010.27 1010.86 1011.52 1011.87 1012.34 1012.79 1013.25 1013.80 1014.24 1014.44 1014.82 1014.92 1015.30 1015.54 1015.88 1016.13 1016.26 1016.28 1016.50 1016.82 1016.93 1017.04 1017.19 1017.42 1017.48 1017.64 1017.73 1017.80 1017.92 1017.92 1018.05 1018.21 1018.23 1018.33
1005.94 1005.67 1006.05 1006.26 1006.37 1007.01 1007.64 1008.14 1008.76 1009.48 1009.83 1010.60 1011.44 1011.71 1012.12 1012.52 1012.85 1013.29 1013.72 1014.24 1014.58 1014.77 1015.06 1015.35 1015.67 1015.85 1015.91 1016.22 1016.33 1016.44 1016.56 1016.74 1016.87 1017.08 1017.28 1017.43 1017.71 1017.77 1017.78 1017.95 1017.98 1017.91 1017.91
1006.97 1006.19 1006.20 1006.32 1006.89 1006.78 1006.99 1007.58 1008.22 1008.92 1009.67 1009.82 1010.47 1011.07 1011.36 1011.66 1012.00 1012.41 1012.96 1013.41 1013.91 1014.23 1014.44 1014.63 1014.92 1015.26 1015.45 1015.68 1015.81 1015.98 1016.05 1016.15 1016.26 1016.48 1016.69 1016.83 1017.07 1017.12 1017.22 1017.33 1017.34 1017.50 1017.61
1008.19 1007.45 1006.90 1006.82 1006.80 1006.86 1007.36 1007.87 1007.86 1008.23 1008.98 1009.57 1009.90 1010.11 1010.58 1011.16 1011.63 1011.93 1012.21 1012.66 1013.11 1013.50 1013.73 1013.92 1014.25 1014.53 1014.94 1015.18 1015.37 1015.49 1015.63 1015.75 1015.72 1015.84 1016.09 1016.24 1016.29 1016.38 1016.57 1016.86 1016.90 1017.04 1017.09
1009.31 1008.80 1008.19 1007.71 1007.15 1006.95 1007.22 1007.21 1007.66 1007.84 1008.28 1009.02 1009.41 1010.01 1010.37 1010.82 1011.14 1011.53 1011.66 1012.06 1012.49 1012.91 1013.34 1013.53 1013.65 1014.05 1014.22 1014.38 1014.67 1014.91 1015.15 1015.27 1015.40 1015.37 1015.40 1015.49 1015.55 1015.64 1015.74 1015.85 1016.10 1016.27 1016.36
1010.09 1009.61 1009.11 1008.63 1008.14 1007.54 1006.91 1006.79 1007.05 1007.58 1007.93 1008.27 1008.92 1009.62 1010.10 1010.18 1010.61 1011.11 1011.44 1011.50 1011.90 1012.41 1012.72 1013.04 1013.26 1013.59 1013.94 1013.98 1014.02 1014.19 1014.48 1014.69 1014.75 1014.81 1014.92 1015.03 1014.99 1015.09 1015.22 1015.14 1015.20 1015.32 1015.53
1010.24 1009.71 1009.41 1008.95 1008.42 1007.81 1007.26 1006.91 1006.90 1007.23 1007.52 1007.75 1008.34 1008.84 1009.24 1009.69 1010.44 1010.64 1010.91 1011.03 1011.39 1011.63 1012.06 1012.62 1012.58 1012.94 1013.27 1013.65 1013.76 1013.75 1013.93 1014.02 1014.04 1014.15 1014.27 1014.51 1014.61 1014.67 1014.69 1014.63 1014.61 1014.65 1014.72
1010.51 1009.97 1009.35 1009.04 1008.28 1007.86 1007.62 1007.18 1007.04 1007.15 1007.35 1007.41 1007.59 1007.77 1008.40 1008.71 1009.40 1009.90 1009.93 1010.19 1010.71 1011.02 1011.00 1011.22 1011.07 1011.77 1012.43 1012.86 1013.19 1013.58 1013.72 1013.53 1013.35 1013.52 1013.77 1013.99 1014.03 1014.01 1014.21 1014.43 1014.25 1013.97 1013.98
1010.39 1009.87 1009.03 1008.85 1008.69 1008.03 1007.72 1007.60 1007.08 1007.07 1006.67 1006.74 1006.84 1007.20 1007.26 1007.87 1008.14 1008.40 1009.00 1009.61 1009.96 1009.90 1010.15 1010.21 1010.10 1010.84 1011.62 1012.06 1012.43 1013.06 1013.36 1013.28 1013.04 1013.24 1013.45 1013.57 1013.70 1013.71 1013.80 1014.00 1013.83 1013.91 1013.79
1010.20 1009.62 1009.25 1008.96 1008.37 1008.15 1007.57 1007.82 1007.44 1006.96 1006.64 1006.49 1006.50 1006.51 1006.66 1006.78 1007.30 1007.56 1008.18 1008.76 1009.16 1009.68 1009.98 1009.99 1009.91 1010.50 1011.37 1011.56 1012.06 1012.73 1012.45 1012.55 1012.83 1013.02 1013.22 1013.37 1013.39 1013.48 1013.53 1013.63 1013.61 1013.60 1013.68
1010.08 1009.68 1009.31 1008.82 1008.10 1007.81 1007.55 1007.33 1007.55 1006.83 1006.34 1006.41 1006.33 1006.00 1006.07 1005.70 1006.20 1007.11 1007.47 1008.32 1008.30 1009.00 1009.41 1009.77 1009.98 1010.07 1010.88 1011.59 1012.12 1011.96 1012.05 1012.48 1012.85 1012.91 1013.13 1013.26 1013.40 1013.55 1013.54 1013.49 1013.50 1013.58 1013.80
1009.14 1009.21 1009.00 1008.49 1007.69 1007.23 1006.96 1007.12 1006.33 1006.94 1005.95 1005.74 1005.86 1006.06 1005.63 1005.52 1005.24 1006.52 1007.11 1007.49 1008.41 1008.48 1009.04 1009.32 1009.79 1009.97 1010.55 1011.20 1011.56 1012.09 1012.51 1012.72 1012.85 1012.89 1012.96 1013.10 1013.53 1013.70 1013.83 1013.87 1013.90 1013.96 1014.02
1008.35 1008.38 1008.26 1008.20 1007.66 1007.19 1006.94 1006.82 1006.48 1006.11 1005.54 1005.60 1005.64 1005.68 1005.50 1005.33 1004.80 1005.90 1006.57 1007.05 1007.87 1008.24 1008.35 1008.86 1009.25 1009.72 1010.33 1011.00 1011.64 1012.17 1012.42 1012.58 1012.83 1012.99 1013.05 1013.18 1013.42 1013.74 1014.17 1014.27 1014.34 1014.37 1014.36
1007.74 1007.70 1007.58 1007.30 1006.95 1006.63 1006.66 1006.31 1006.08 1005.66 1005.49 1005.43 1005.46 1005.02 1004.71 1004.76 1005.02 1005.89 1006.57 1006.80 1007.12 1006.78 1007.29 1008.23 1008.54 1009.09 1009.93 1010.34 1010.79 1011.36 1011.89 1012.02 1012.22 1012.73 1013.01 1013.28 1013.56 1013.91 1014.23 1014.44 1014.55 1014.76 1014.93
1007.03 1006.81 1006.47 1006.25 1005.83 1005.74 1005.72 1005.47 1005.26 1005.20 1005.21 1005.09 1004.83 1004.44 1004.33 1004.52 1004.74 1005.59 1006.75 1007.18 1007.81 1007.59 1006.98 1007.59 1007.83 1008.61 1008.98 1009.63 1010.36 1011.02 1011.32 1011.75 1012.11 1012.41 1012.68 1013.05 1013.42 1013.69 1014.04 1014.35 1014.61 1014.88 1015.19
Wind_Speed
9 10 11 10 10 9 9 9 9 8 7 4 3 2 2 2 3 3 5 4 3 4 3 3 2 3 2 2 3 2 2 1 0 2 2 2 4 2 2 1 0 3 4
8 9 11 11 12 12 11 10 9 9 7 5 3 3 3 2 2 2 4 5 4 5 5 3 3 3 3 3 3 2 1 1 2 1 1 2 2 2 0 2 1 3 3
7 9 12 13 12 11 12 11 10 10 8 7 4 2 3 2 1 3 2 4 4 4 5 4 3 4 3 3 3 3 3 2 2 3 3 2 2 2 2 2 2 3 2
7 10 13 12 13 11 10 10 10 10 8 9 7 4 4 4 3 3 2 3 4 4 5 4 4 4 3 3 3 3 2 3 2 0 1 0 2 1 2 0 2 2 4
10 11 12 13 11 11 11 10 10 9 9 9 8 5 3 3 2 2 3 3 1 2 3 4 3 3 2 2 3 3 2 2 2 2 2 1 2 1 1 1 2 1 4
11 10 9 9 10 9 9 10 11 10 9 9 8 8 7 5 2 2 3 3 2 3 3 4 4 3 2 3 2 1 1 2 2 2 1 1 1 1 1 0 2 2 2
10 11 13 12 12 12 12 11 12 10 11 11 10 9 7 6 7 5 3 4 2 2 5 5 4 3 4 4 3 2 2 2 2 2 2 1 1 1 1 1 1 2 2
10 13 15 14 14 16 14 14 13 12 11 12 11 9 8 5 4 5 3 3 3 3 3 4 4 5 4 3 3 1 2 2 2 4 3 1 3 3 2 2 2 1 1
7 11 12 14 14 15 16 15 15 13 13 13 10 10 9 8 7 6 3 3 3 3 4 5 5 4 4 5 3 3 4 2 2 3 4 3 2 3 3 2 2 1 1
8 10 13 15 13 13 13 13 13 16 13 13 11 10 10 9 8 5 6 6 3 3 4 5 4 4 4 4 4 3 3 3 2 2 3 3 1 2 2 2 2 1 1
7 10 13 15 14 12 14 15 13 13 12 12 11 10 10 10 8 7 6 6 5 5 5 4 5 4 4 4 4 4 4 4 3 3 3 4 3 2 3 2 2 2 2
7 6 10 13 13 14 14 16 13 13 13 12 12 11 10 11 10 9 8 6 6 5 6 5 4 5 5 4 5 6 4 5 5 5 3 5 2 4 3 2 4 3 3
8 6 7 12 14 14 13 15 14 14 13 12 11 11 10 12 13 12 10 9 8 7 6 5 5 6 6 5 6 6 6 6 6 5 4 4 3 4 3 4 4 3 3
10 3 3 7 7 10 13 13 13 12 12 13 14 13 13 13 13 11 10 11 10 9 8 7 7 7 6 7 7 7 6 6 6 6 6 6 6 6 5 5 5 4 4
15 13 6 3 5 7 5 7 10 12 12 12 13 14 12 11 11 10 11 11 10 10 9 8 7 7 6 6 7 7 7 7 7 7 7 7 8 10 8 5 5 5 5
15 14 12 10 4 6 7 9 10 12 11 12 12 9 9 10 10 10 10 9 9 9 8 8 8 8 7 10 13 10 8 7 8 8 8 7 9 9 12 12 11 8 6
13 11 10 9 9 7 6 11 11 9 10 11 9 10 9 10 11 9 9 10 9 8 9 8 6 7 7 10 14 14 8 8 8 8 7 7 7 7 7 9 11 11 12
13 12 9 10 7 6 8 4 7 11 11 12 10 10 11 10 7 8 9 8 7 10 8 8 8 6 4 11 14 14 9 8 9 8 7 7 8 8 8 7 7 8 8
10 10 9 9 7 7 7 8 4 8 10 13 14 13 13 12 10 11 11 9 10 9 9 9 9 6 5 7 14 9 8 8 9 6 7 8 8 8 8 7 9 8 7
9 10 11 8 9 7 6 8 4 5 10 11 13 12 12 13 13 14 12 9 9 10 8 8 8 12 11 8 8 11 6 7 5 4 5 7 8 7 5 7 7 7 7
9 8 7 8 10 9 2 6 5 6 6 6 6 8 12 14 15 13 10 11 9 6 8 8 7 6 8 6 7 12 5 4 3 3 4 5 6 6 6 8 6 6 3
5 7 7 8 9 7 5 5 8 8 6 4 5 9 12 11 9 11 10 9 9 9 9 7 5 4 5 7 8 7 5 5 4 3 4 2 4 4 2 4 6 8 6
10 4 7 9 8 7 4 8 7 6 5 5 6 7 7 9 9 10 9 8 9 9 8 7 6 5 4 3 5 4 6 4 2 2 2 8 7 8 7 6 6 5 3
14 6 5 8 8 6 7 10 9 7 3 5 9 9 7 7 6 6 8 9 9 9 9 8 9 7 6 5 4 4 4 4 3 4 4 4 6 7 6 3 4 2 2
15 8 8 10 9 6 9 11 10 7 7 7 8 10 7 6 6 4 4 7 6 9 11 8 8 9 7 8 9 9 6 6 5 6 4 3 3 3 3 2 3 3 2
14 11 12 11 10 7 8 10 11 10 10 10 9 8 8 8 6 7 5 14 6 3 11 8 7 3 4 11 13 11 10 10 12 3 4 3 4 4 4 3 3 2 3
Wind_Direction
206 185 178 168 153 155 160 161 150 154 148 153 148 158 189 174 221 222 229 222 242 238 227 245 146 178 179 185 161 119 142 87 219 353 5 12 38 78 88 89 202 224 218
174 167 163 166 170 166 169 161 165 161 163 163 152 150 148 184 213 213 220 226 220 216 199 207 190 200 152 158 166 179 141 96 187 142 47 15 339 352 75 123 350 263 236
178 165 170 175 165 171 169 170 164 163 164 161 138 106 98 104 189 224 222 225 203 182 177 193 188 184 151 177 171 186 156 144 233 218 138 123 231 326 321 284 246 278 236
180 180 180 176 178 178 165 162 157 161 169 163 168 171 167 164 202 194 181 194 182 173 167 179 194 182 159 176 183 161 177 136 213 103 118 57 128 179 337 310 277 250 259
183 195 186 183 178 166 170 155 152 167 166 177 176 172 161 217 171 170 171 178 162 219 185 185 186 201 167 205 212 171 176 143 177 170 181 121 84 69 105 316 356 276 255
193 185 176 174 175 161 156 154 163 175 164 175 182 185 179 189 215 194 185 190 193 196 208 186 184 210 211 233 239 217 199 170 236 160 178 170 119 186 139 55 270 265 273
185 176 176 174 163 167 169 167 174 183 173 178 188 192 188 192 199 214 191 185 192 213 206 189 189 199 208 216 204 210 225 204 242 223 191 206 236 174 121 162 215 245 267
183 183 182 186 181 176 172 176 179 183 184 183 189 194 189 191 208 207 206 219 208 211 190 201 192 214 219 228 216 229 236 208 246 268 239 205 211 194 189 232 192 193 278
189 182 182 190 190 185 177 180 179 187 190 192 183 186 190 188 208 204 199 231 224 226 226 209 198 221 216 210 197 220 240 204 239 267 270 217 225 234 207 229 267 190 287
185 177 186 192 195 186 182 180 187 191 191 193 193 186 188 192 207 184 197 218 234 234 232 218 217 214 219 216 195 222 220 227 232 252 256 239 204 247 245 199 219 215 235
210 191 194 193 192 183 179 179 185 182 186 190 196 191 185 186 202 203 199 205 192 207 225 226 222 224 226 197 218 224 231 228 253 252 233 263 284 233 197 244 217 235 200
257 245 198 185 187 186 180 183 185 181 185 194 190 196 190 183 194 209 194 202 209 203 214 208 226 220 230 198 216 226 218 219 227 240 238 259 255 253 248 227 235 251 241
307 205 191 196 184 187 188 186 182 188 182 176 193 196 191 192 202 203 198 190 212 205 210 198 214 218 225 206 217 228 226 218 219 227 233 251 233 249 222 223 231 229 223
350 316 193 193 216 195 189 186 186 181 188 181 186 198 203 203 204 201 202 195 203 209 208 211 210 212 222 212 210 217 224 232 230 223 223 234 219 236 246 237 232 227 222
1 5 353 220 204 199 187 197 189 178 183 192 189 200 202 206 208 201 202 205 197 214 213 211 211 209 210 226 219 216 219 221 232 237 228 235 224 213 219 228 228 221 226
359 352 356 5 307 208 178 196 194 197 181 189 209 197 190 194 202 206 206 207 201 206 203 213 211 211 220 216 214 209 218 222 225 239 245 235 233 232 225 225 225 201 210
344 345 344 342 337 320 221 201 196 178 187 198 188 192 201 196 203 201 194 207 205 185 201 211 209 222 232 224 219 218 221 220 226 226 227 245 254 235 249 236 223 221 220
332 331 322 325 318 324 325 266 180 186 192 197 189 186 194 206 200 204 201 199 200 197 189 175 181 187 220 244 249 231 217 221 227 228 230 227 239 237 238 253 256 234 218
306 303 307 301 308 320 328 326 225 186 195 205 205 195 198 199 199 219 215 203 201 203 193 193 183 177 239 224 231 232 227 229 235 228 229 233 244 244 217 233 250 254 236
293 299 310 309 300 302 337 320 350 232 213 205 215 207 195 207 204 207 215 214 207 206 195 200 182 180 213 225 216 205 211 212 226 243 262 244 254 263 243 230 236 244 246
282 285 287 293 298 291 337 307 309 277 253 234 227 206 195 197 209 207 207 197 186 200 201 203 191 187 180 178 205 209 196 191 206 231 265 278 258 265 256 219 227 226 156
229 269 268 269 268 275 260 259 269 260 269 256 255 212 212 198 192 199 194 202 172 179 184 178 170 153 150 167 192 174 190 171 208 218 232 240 154 130 138 166 148 132 133
297 246 239 267 281 276 250 255 254 262 263 278 256 262 253 210 171 185 191 177 189 178 174 167 172 167 156 166 161 192 206 205 201 232 233 135 138 125 86 85 124 141 150
285 282 254 239 259 240 245 253 256 257 247 249 263 257 231 224 164 182 180 173 184 184 171 173 174 172 179 185 178 184 178 174 180 135 120 128 114 94 110 98 63 73 123
283 277 265 273 251 244 221 235 245 236 245 241 239 248 258 223 173 151 174 183 199 188 167 181 169 169 188 201 180 173 183 183 167 135 132 126 123 136 136 110 103 99 110
274 273 273 266 258 253 242 226 213 213 230 238 238 232 231 231 170 153 113 46 49 95 88 121 154 138 114 153 162 170 162 146 151 142 165 158 170 183 177 164 136 123 133